UAL2396 KBTV-KIAD

Flight info

Callsign UAL2396
Flight time 1h 14m
Altitude 28000
Route DCT ALB HYPER9
Aircraft B737/M-SDE2E3FGHIRWXY/LB1

Departure

Time 2026-05-08 20:57
Airport Patrick Leahy Burlington International Airport (KBTV)

Arrival

Time 2026-05-08 22:11
Airport Washington Dulles International Airport (KIAD)
Time Latitude Longitude Altitude Speed Heading
2026-05-08 20:34 44.46777 -73.15403 343 ft 0 kts 347°
2026-05-08 20:49 44.46754 -73.15396 343 ft 4 kts 347°
2026-05-08 20:49 44.46728 -73.15388 343 ft 4 kts 347°
2026-05-08 20:50 44.46716 -73.15384 343 ft 0 kts 347°
2026-05-08 20:53 44.46733 -73.15364 343 ft 10 kts 83°
2026-05-08 20:53 44.46703 -73.15292 343 ft 10 kts 171°
2026-05-08 20:54 44.46610 -73.15271 343 ft 14 kts 159°
2026-05-08 20:54 44.46593 -73.15139 343 ft 18 kts 89°
2026-05-08 20:54 44.46596 -73.14939 343 ft 21 kts 88°
2026-05-08 20:54 44.46601 -73.14740 343 ft 20 kts 88°
2026-05-08 20:55 44.46604 -73.14568 343 ft 14 kts 89°
2026-05-08 20:55 44.46572 -73.14448 343 ft 13 kts 131°
2026-05-08 20:55 44.46512 -73.14353 343 ft 12 kts 131°
2026-05-08 20:55 44.46526 -73.14256 343 ft 12 kts 43°
2026-05-08 20:56 44.46590 -73.14208 343 ft 10 kts 339°
2026-05-08 20:56 44.46650 -73.14295 343 ft 21 kts 310°
2026-05-08 20:56 44.46884 -73.14675 343 ft 83 kts 311°
2026-05-08 20:56 44.47392 -73.15499 345 ft 138 kts 311°
2026-05-08 20:57 44.48091 -73.16581 747 ft 153 kts 316°
2026-05-08 20:57 44.48834 -73.17618 1549 ft 144 kts 315°
2026-05-08 20:57 44.49513 -73.18713 2019 ft 157 kts 305°
2026-05-08 20:57 44.49791 -73.20250 2318 ft 178 kts 263°
2026-05-08 20:58 44.49213 -73.21874 2692 ft 197 kts 238°
2026-05-08 20:58 44.48347 -73.23497 2958 ft 219 kts 232°
2026-05-08 20:58 44.47210 -73.25030 3355 ft 240 kts 221°
2026-05-08 20:58 44.45830 -73.26524 3949 ft 255 kts 220°
2026-05-08 20:59 44.44412 -73.28035 4889 ft 257 kts 220°
2026-05-08 20:59 44.42978 -73.29559 5832 ft 260 kts 220°
2026-05-08 20:59 44.42014 -73.30583 6447 ft 261 kts 220°
2026-05-08 20:59 44.40572 -73.32120 7467 ft 258 kts 220°
2026-05-08 21:00 44.39122 -73.33661 8270 ft 266 kts 220°
2026-05-08 21:00 44.37636 -73.35237 9078 ft 270 kts 220°
2026-05-08 21:00 44.36126 -73.36836 9852 ft 274 kts 220°
2026-05-08 21:00 44.34579 -73.38474 10688 ft 277 kts 220°
2026-05-08 21:01 44.33006 -73.40142 11200 ft 292 kts 220°
2026-05-08 21:01 44.31336 -73.41909 11599 ft 310 kts 220°
2026-05-08 21:01 44.29608 -73.43740 12198 ft 319 kts 220°
2026-05-08 21:01 44.27807 -73.45646 12921 ft 325 kts 220°
2026-05-08 21:02 44.25988 -73.47569 13634 ft 331 kts 220°
2026-05-08 21:02 44.24137 -73.49528 14413 ft 336 kts 220°
2026-05-08 21:02 44.22262 -73.51509 15176 ft 342 kts 220°
2026-05-08 21:02 44.20351 -73.53526 15925 ft 348 kts 220°
2026-05-08 21:03 44.18415 -73.55597 16659 ft 353 kts 221°
2026-05-08 21:03 44.16446 -73.57698 17367 ft 360 kts 221°
2026-05-08 21:03 44.14443 -73.59853 18066 ft 366 kts 221°
2026-05-08 21:03 44.12414 -73.62012 18803 ft 370 kts 221°
2026-05-08 21:04 44.10329 -73.64214 19545 ft 374 kts 221°
2026-05-08 21:04 44.08244 -73.66408 20260 ft 378 kts 221°
2026-05-08 21:04 44.06133 -73.68624 20953 ft 381 kts 222°
2026-05-08 21:04 44.04008 -73.70850 21612 ft 385 kts 222°
2026-05-08 21:05 44.01854 -73.73105 22247 ft 389 kts 222°
2026-05-08 21:05 43.99685 -73.75373 22890 ft 392 kts 223°
2026-05-08 21:05 43.97495 -73.77661 23514 ft 395 kts 223°
2026-05-08 21:05 43.95298 -73.79956 24116 ft 398 kts 223°
2026-05-08 21:06 43.93047 -73.82226 24693 ft 404 kts 219°
2026-05-08 21:06 43.90464 -73.83929 25240 ft 419 kts 205°
2026-05-08 21:06 43.87566 -73.84790 25763 ft 433 kts 193°
2026-05-08 21:06 43.84521 -73.84975 26256 ft 443 kts 186°
2026-05-08 21:07 43.81421 -73.84867 26728 ft 448 kts 184°
2026-05-08 21:07 43.78251 -73.84665 27168 ft 452 kts 184°
2026-05-08 21:07 43.75102 -73.84476 27646 ft 454 kts 184°
2026-05-08 21:07 43.71917 -73.84313 27796 ft 461 kts 185°
2026-05-08 21:08 43.68707 -73.84170 27875 ft 461 kts 185°
2026-05-08 21:08 43.65480 -73.84032 27891 ft 457 kts 186°
2026-05-08 21:08 43.62336 -73.83891 27896 ft 457 kts 185°
2026-05-08 21:08 43.59163 -73.83766 27901 ft 455 kts 186°
2026-05-08 21:09 43.55998 -73.83627 27899 ft 455 kts 186°
2026-05-08 21:09 43.52782 -73.83490 27901 ft 456 kts 186°
2026-05-08 21:09 43.49578 -73.83363 27900 ft 454 kts 186°
2026-05-08 21:09 43.46418 -73.83230 27900 ft 456 kts 186°
2026-05-08 21:10 43.43236 -73.83101 27899 ft 458 kts 186°
2026-05-08 21:10 43.40049 -73.82968 27900 ft 457 kts 186°
2026-05-08 21:10 43.36875 -73.82839 27900 ft 458 kts 186°
2026-05-08 21:10 43.33706 -73.82710 27900 ft 456 kts 186°
2026-05-08 21:11 43.30540 -73.82579 27902 ft 452 kts 186°
2026-05-08 21:11 43.27401 -73.82452 27905 ft 451 kts 186°
2026-05-08 21:11 43.24272 -73.82325 27907 ft 451 kts 186°
2026-05-08 21:11 43.20993 -73.82192 27908 ft 451 kts 186°
2026-05-08 21:12 43.17727 -73.82059 27911 ft 451 kts 186°
2026-05-08 21:12 43.14605 -73.81932 27914 ft 450 kts 187°
2026-05-08 21:12 43.11445 -73.81803 27918 ft 450 kts 187°
2026-05-08 21:12 43.08286 -73.81675 27921 ft 450 kts 187°
2026-05-08 21:13 43.05126 -73.81545 27925 ft 449 kts 187°
2026-05-08 21:13 43.01991 -73.81418 27928 ft 449 kts 187°
2026-05-08 21:13 42.98865 -73.81291 27930 ft 449 kts 187°
2026-05-08 21:13 42.95741 -73.81165 27932 ft 449 kts 187°
2026-05-08 21:14 42.92570 -73.81037 27934 ft 449 kts 187°
2026-05-08 21:14 42.90498 -73.80953 27935 ft 449 kts 187°
2026-05-08 21:14 42.86316 -73.80784 27936 ft 449 kts 187°
2026-05-08 21:14 42.84208 -73.80699 27935 ft 449 kts 188°
2026-05-08 21:15 42.81040 -73.80572 27934 ft 448 kts 188°
2026-05-08 21:15 42.77929 -73.80447 27932 ft 448 kts 188°
2026-05-08 21:15 42.74808 -73.80322 27931 ft 449 kts 188°
2026-05-08 21:15 42.71676 -73.80259 27930 ft 446 kts 190°
2026-05-08 21:16 42.68541 -73.80330 27930 ft 443 kts 191°
2026-05-08 21:16 42.65437 -73.80423 27930 ft 444 kts 191°
2026-05-08 21:16 42.62387 -73.80499 27930 ft 444 kts 191°
2026-05-08 21:16 42.59213 -73.80569 27930 ft 444 kts 191°
2026-05-08 21:17 42.56119 -73.80631 27929 ft 443 kts 191°
2026-05-08 21:17 42.53076 -73.80689 27928 ft 443 kts 191°
2026-05-08 21:17 42.49951 -73.80747 27927 ft 443 kts 191°
2026-05-08 21:17 42.46868 -73.80802 27926 ft 443 kts 191°
2026-05-08 21:18 42.43782 -73.80856 27924 ft 444 kts 191°
2026-05-08 21:18 42.40693 -73.80911 27927 ft 443 kts 192°
2026-05-08 21:18 42.37609 -73.80965 27931 ft 443 kts 192°
2026-05-08 21:18 42.34521 -73.81019 27930 ft 444 kts 192°
2026-05-08 21:19 42.31392 -73.81074 27929 ft 444 kts 192°
2026-05-08 21:19 42.28307 -73.81128 27930 ft 444 kts 192°
2026-05-08 21:19 42.25219 -73.81181 27929 ft 444 kts 192°
2026-05-08 21:19 42.22097 -73.81235 27929 ft 444 kts 192°
2026-05-08 21:20 42.19008 -73.81288 27928 ft 444 kts 192°
2026-05-08 21:20 42.15922 -73.81342 27928 ft 444 kts 192°
2026-05-08 21:20 42.12837 -73.81395 27926 ft 444 kts 192°
2026-05-08 21:20 42.09749 -73.81448 27922 ft 444 kts 192°
2026-05-08 21:21 42.06658 -73.81501 27921 ft 444 kts 192°
2026-05-08 21:21 42.03562 -73.81555 27922 ft 444 kts 192°
2026-05-08 21:21 42.00449 -73.81608 27922 ft 444 kts 192°
2026-05-08 21:21 41.97353 -73.81661 27921 ft 444 kts 192°
2026-05-08 21:22 41.94268 -73.81714 27922 ft 444 kts 192°
2026-05-08 21:22 41.91178 -73.81767 27922 ft 444 kts 192°
2026-05-08 21:22 41.87724 -73.81826 27922 ft 444 kts 192°
2026-05-08 21:22 41.84699 -73.81877 27922 ft 444 kts 192°
2026-05-08 21:23 41.81636 -73.81929 27922 ft 444 kts 192°
2026-05-08 21:23 41.78532 -73.81983 27922 ft 443 kts 192°
2026-05-08 21:23 41.75495 -73.82298 27921 ft 432 kts 200°
2026-05-08 21:23 41.72604 -73.83131 27922 ft 420 kts 208°
2026-05-08 21:24 41.69886 -73.84407 27921 ft 410 kts 213°
2026-05-08 21:24 41.67214 -73.85963 27921 ft 406 kts 216°
2026-05-08 21:24 41.64655 -73.87562 27920 ft 406 kts 216°
2026-05-08 21:24 41.62087 -73.89145 27920 ft 407 kts 216°
2026-05-08 21:25 41.60314 -73.90227 27920 ft 407 kts 216°
2026-05-08 21:25 41.57734 -73.91793 27920 ft 407 kts 216°
2026-05-08 21:25 41.55118 -73.93375 27921 ft 407 kts 216°
2026-05-08 21:25 41.52541 -73.94930 27921 ft 407 kts 216°
2026-05-08 21:26 41.49958 -73.96486 27921 ft 407 kts 216°
2026-05-08 21:26 41.47372 -73.98043 27921 ft 407 kts 216°
2026-05-08 21:26 41.44794 -73.99595 27921 ft 406 kts 216°
2026-05-08 21:26 41.42267 -74.01194 27921 ft 402 kts 219°
2026-05-08 21:27 41.39865 -74.03096 27922 ft 395 kts 225°
2026-05-08 21:27 41.37618 -74.05250 27922 ft 391 kts 228°
2026-05-08 21:27 41.35473 -74.07471 27924 ft 390 kts 229°
2026-05-08 21:27 41.33329 -74.09697 27926 ft 390 kts 228°
2026-05-08 21:28 41.31187 -74.11905 27927 ft 391 kts 228°
2026-05-08 21:28 41.29007 -74.14144 27929 ft 390 kts 228°
2026-05-08 21:28 41.26833 -74.16372 27931 ft 390 kts 228°
2026-05-08 21:28 41.24682 -74.18574 27933 ft 390 kts 228°
2026-05-08 21:29 41.22528 -74.20779 27935 ft 391 kts 228°
2026-05-08 21:29 41.20506 -74.23122 27938 ft 382 kts 235°
2026-05-08 21:29 41.18785 -74.25757 27942 ft 374 kts 242°
2026-05-08 21:29 41.17292 -74.28569 27944 ft 372 kts 244°
2026-05-08 21:30 41.15863 -74.31480 27947 ft 371 kts 246°
2026-05-08 21:30 41.14477 -74.34416 27950 ft 370 kts 246°
2026-05-08 21:30 41.13118 -74.37319 27951 ft 370 kts 246°
2026-05-08 21:30 41.11747 -74.40261 27951 ft 370 kts 246°
2026-05-08 21:31 41.10403 -74.43150 27950 ft 371 kts 246°
2026-05-08 21:31 41.09040 -74.46087 27948 ft 370 kts 246°
2026-05-08 21:31 41.07719 -74.49008 27948 ft 369 kts 246°
2026-05-08 21:31 41.06393 -74.51922 27947 ft 370 kts 246°
2026-05-08 21:32 41.05065 -74.54806 27946 ft 370 kts 246°
2026-05-08 21:32 41.03704 -74.57744 27945 ft 371 kts 246°
2026-05-08 21:32 41.02354 -74.60647 27944 ft 371 kts 246°
2026-05-08 21:32 41.01001 -74.63550 27942 ft 371 kts 246°
2026-05-08 21:33 40.99646 -74.66452 27942 ft 371 kts 246°
2026-05-08 21:33 40.98288 -74.69358 27941 ft 371 kts 246°
2026-05-08 21:33 40.96929 -74.72263 27941 ft 372 kts 246°
2026-05-08 21:33 40.95568 -74.75173 27940 ft 372 kts 246°
2026-05-08 21:34 40.94193 -74.78111 27939 ft 371 kts 246°
2026-05-08 21:34 40.92825 -74.81033 27938 ft 371 kts 246°
2026-05-08 21:34 40.91456 -74.83962 27937 ft 372 kts 246°
2026-05-08 21:34 40.90091 -74.86865 27936 ft 372 kts 245°
2026-05-08 21:35 40.88718 -74.89781 27935 ft 372 kts 245°
2026-05-08 21:35 40.87350 -74.92684 27934 ft 372 kts 245°
2026-05-08 21:35 40.85962 -74.95626 27933 ft 372 kts 245°
2026-05-08 21:35 40.84593 -74.98526 27932 ft 372 kts 245°
2026-05-08 21:36 40.83235 -75.01402 27933 ft 372 kts 245°
2026-05-08 21:36 40.81881 -75.04340 27933 ft 372 kts 246°
2026-05-08 21:36 40.80529 -75.07251 27933 ft 372 kts 245°
2026-05-08 21:36 40.79166 -75.10153 27932 ft 371 kts 245°
2026-05-08 21:37 40.77800 -75.13046 27932 ft 372 kts 245°
2026-05-08 21:37 40.76432 -75.15931 27931 ft 372 kts 245°
2026-05-08 21:37 40.75059 -75.18818 27931 ft 372 kts 245°
2026-05-08 21:37 40.73683 -75.21711 27931 ft 372 kts 245°
2026-05-08 21:38 40.72308 -75.24598 27931 ft 372 kts 245°
2026-05-08 21:38 40.70930 -75.27491 27931 ft 372 kts 245°
2026-05-08 21:38 40.69554 -75.30376 27930 ft 372 kts 245°
2026-05-08 21:38 40.68182 -75.33252 27930 ft 371 kts 245°
2026-05-08 21:39 40.66818 -75.36112 27929 ft 367 kts 245°
2026-05-08 21:39 40.65456 -75.38986 27740 ft 361 kts 246°
2026-05-08 21:39 40.64216 -75.41797 27584 ft 360 kts 248°
2026-05-08 21:39 40.63003 -75.44666 27236 ft 356 kts 248°
2026-05-08 21:40 40.61795 -75.47508 26668 ft 355 kts 248°
2026-05-08 21:40 40.60577 -75.50351 26224 ft 349 kts 248°
2026-05-08 21:40 40.59402 -75.53117 25807 ft 342 kts 248°
2026-05-08 21:41 40.57091 -75.58565 24974 ft 332 kts 248°
2026-05-08 21:41 40.55978 -75.61150 24574 ft 327 kts 248°
2026-05-08 21:41 40.55221 -75.62898 24306 ft 324 kts 248°
2026-05-08 21:41 40.53741 -75.66309 23775 ft 318 kts 248°
2026-05-08 21:42 40.53012 -75.67985 23516 ft 321 kts 248°
2026-05-08 21:42 40.51874 -75.70596 23105 ft 329 kts 248°
2026-05-08 21:42 40.50724 -75.73234 22692 ft 334 kts 247°
2026-05-08 21:42 40.49573 -75.75870 22275 ft 331 kts 247°
2026-05-08 21:43 40.48436 -75.78475 21859 ft 326 kts 248°
2026-05-08 21:43 40.47313 -75.81045 21408 ft 322 kts 248°
2026-05-08 21:43 40.46205 -75.83582 20935 ft 319 kts 248°
2026-05-08 21:43 40.45103 -75.86095 20447 ft 317 kts 246°
2026-05-08 21:44 40.43844 -75.88482 20124 ft 319 kts 240°
2026-05-08 21:44 40.42369 -75.90670 20040 ft 320 kts 236°
2026-05-08 21:44 40.40814 -75.92735 19975 ft 315 kts 234°
2026-05-08 21:44 40.39258 -75.94712 19895 ft 307 kts 234°
2026-05-08 21:45 40.37704 -75.96680 19418 ft 308 kts 234°
2026-05-08 21:45 40.36133 -75.98667 18552 ft 320 kts 233°
2026-05-08 21:45 40.34538 -76.00707 18228 ft 318 kts 234°
2026-05-08 21:45 40.32950 -76.02747 17976 ft 320 kts 234°
2026-05-08 21:46 40.31352 -76.04782 17891 ft 322 kts 233°
2026-05-08 21:46 40.29738 -76.06827 17910 ft 325 kts 233°
2026-05-08 21:46 40.28104 -76.08891 17924 ft 326 kts 233°
2026-05-08 21:46 40.26469 -76.10953 17931 ft 326 kts 233°
2026-05-08 21:47 40.24830 -76.13016 17936 ft 326 kts 233°
2026-05-08 21:47 40.23193 -76.15075 17936 ft 326 kts 233°
2026-05-08 21:47 40.21559 -76.17128 17940 ft 326 kts 233°
2026-05-08 21:47 40.19920 -76.19187 17905 ft 326 kts 233°
2026-05-08 21:48 40.18284 -76.21241 17784 ft 326 kts 233°
2026-05-08 21:48 40.16647 -76.23295 17656 ft 325 kts 233°
2026-05-08 21:48 40.15010 -76.25349 17551 ft 328 kts 233°
2026-05-08 21:48 40.13321 -76.27491 17430 ft 333 kts 235°
2026-05-08 21:49 40.11815 -76.29784 17304 ft 323 kts 241°
2026-05-08 21:49 40.10561 -76.32185 17173 ft 319 kts 245°
2026-05-08 21:49 40.09418 -76.34652 17041 ft 315 kts 247°
2026-05-08 21:49 40.08303 -76.37119 16913 ft 319 kts 246°
2026-05-08 21:50 40.07179 -76.39610 16786 ft 317 kts 246°
2026-05-08 21:50 40.06026 -76.42108 16647 ft 316 kts 246°
2026-05-08 21:50 40.04883 -76.44563 16527 ft 317 kts 246°
2026-05-08 21:50 40.03730 -76.47048 16391 ft 322 kts 246°
2026-05-08 21:51 40.02576 -76.49549 16258 ft 322 kts 246°
2026-05-08 21:51 40.01410 -76.52072 16125 ft 318 kts 246°
2026-05-08 21:51 40.00269 -76.54529 15995 ft 315 kts 246°
2026-05-08 21:51 39.99122 -76.56993 15864 ft 314 kts 246°
2026-05-08 21:52 39.97982 -76.59442 15740 ft 317 kts 246°
2026-05-08 21:52 39.96817 -76.61937 15604 ft 318 kts 246°
2026-05-08 21:52 39.95688 -76.64418 15471 ft 319 kts 245°
2026-05-08 21:52 39.94551 -76.66889 15340 ft 315 kts 246°
2026-05-08 21:53 39.93414 -76.69324 15209 ft 315 kts 245°
2026-05-08 21:53 39.92266 -76.71794 15079 ft 315 kts 245°
2026-05-08 21:53 39.91123 -76.74228 14950 ft 315 kts 245°
2026-05-08 21:53 39.89987 -76.76651 14822 ft 312 kts 245°
2026-05-08 21:54 39.88855 -76.79062 14693 ft 312 kts 245°
2026-05-08 21:54 39.87728 -76.81469 14565 ft 312 kts 245°
2026-05-08 21:54 39.86598 -76.83880 14436 ft 311 kts 245°
2026-05-08 21:54 39.85466 -76.86283 14307 ft 311 kts 245°
2026-05-08 21:55 39.84336 -76.88687 14179 ft 311 kts 245°
2026-05-08 21:55 39.83211 -76.91084 14049 ft 311 kts 245°
2026-05-08 21:55 39.82093 -76.93482 13994 ft 309 kts 245°
2026-05-08 21:56 39.79848 -76.98253 13489 ft 306 kts 244°
2026-05-08 21:56 39.78739 -77.00604 12971 ft 305 kts 244°
2026-05-08 21:56 39.77633 -77.02966 12597 ft 306 kts 245°
2026-05-08 21:56 39.76504 -77.05370 12273 ft 307 kts 244°
2026-05-08 21:57 39.75387 -77.07745 11954 ft 308 kts 244°
2026-05-08 21:57 39.74253 -77.10145 11635 ft 308 kts 244°
2026-05-08 21:57 39.73140 -77.12498 11327 ft 302 kts 244°
2026-05-08 21:57 39.72053 -77.14791 11022 ft 295 kts 243°
2026-05-08 21:58 39.70992 -77.17029 10723 ft 287 kts 243°
2026-05-08 21:58 39.69945 -77.19238 10432 ft 280 kts 243°
2026-05-08 21:58 39.68924 -77.21342 10150 ft 272 kts 240°
2026-05-08 21:58 39.67752 -77.23227 10001 ft 266 kts 232°
2026-05-08 21:59 39.66448 -77.24914 9852 ft 263 kts 229°
2026-05-08 21:59 39.65111 -77.26505 9720 ft 260 kts 227°
2026-05-08 21:59 39.64205 -77.27575 9635 ft 259 kts 227°
2026-05-08 21:59 39.62881 -77.29151 9514 ft 259 kts 227°
2026-05-08 22:00 39.61556 -77.30735 9390 ft 259 kts 227°
2026-05-08 22:00 39.60207 -77.32344 9274 ft 259 kts 226°
2026-05-08 22:00 39.58711 -77.33570 9143 ft 261 kts 209°
2026-05-08 22:00 39.56949 -77.34277 8725 ft 266 kts 197°
2026-05-08 22:01 39.55077 -77.34761 8425 ft 267 kts 197°
2026-05-08 22:01 39.53302 -77.35210 8233 ft 267 kts 197°
2026-05-08 22:01 39.51482 -77.35672 8047 ft 266 kts 197°
2026-05-08 22:01 39.49664 -77.36134 7860 ft 266 kts 197°
2026-05-08 22:02 39.47852 -77.36593 7672 ft 264 kts 197°
2026-05-08 22:02 39.46049 -77.37050 7491 ft 264 kts 197°
2026-05-08 22:02 39.44253 -77.37501 7311 ft 265 kts 196°
2026-05-08 22:02 39.42314 -77.37993 7114 ft 264 kts 196°
2026-05-08 22:03 39.40521 -77.38444 6931 ft 262 kts 196°
2026-05-08 22:03 39.38760 -77.38888 6751 ft 262 kts 196°
2026-05-08 22:03 39.36974 -77.39339 6570 ft 260 kts 196°
2026-05-08 22:03 39.35200 -77.39789 6393 ft 260 kts 196°
2026-05-08 22:04 39.33417 -77.40236 6212 ft 259 kts 196°
2026-05-08 22:04 39.31640 -77.40682 6036 ft 261 kts 196°
2026-05-08 22:04 39.29822 -77.41138 5850 ft 260 kts 196°
2026-05-08 22:04 39.28087 -77.41576 5673 ft 257 kts 196°
2026-05-08 22:05 39.26332 -77.42017 5491 ft 254 kts 196°
2026-05-08 22:05 39.24627 -77.42443 5319 ft 245 kts 196°
2026-05-08 22:05 39.22961 -77.42864 5148 ft 237 kts 196°
2026-05-08 22:05 39.21340 -77.43148 5005 ft 235 kts 189°
2026-05-08 22:06 39.19688 -77.43235 4917 ft 241 kts 186°
2026-05-08 22:06 39.17993 -77.43263 4635 ft 245 kts 185°
2026-05-08 22:06 39.16291 -77.43290 4311 ft 244 kts 185°
2026-05-08 22:06 39.14601 -77.43314 3979 ft 242 kts 185°
2026-05-08 22:07 39.12943 -77.43340 3675 ft 234 kts 185°
2026-05-08 22:07 39.11360 -77.43365 3386 ft 220 kts 185°
2026-05-08 22:07 39.09882 -77.43386 3086 ft 206 kts 185°
2026-05-08 22:07 39.08478 -77.43407 2810 ft 196 kts 185°
2026-05-08 22:08 39.07148 -77.43427 2553 ft 189 kts 185°
2026-05-08 22:08 39.05846 -77.43446 2325 ft 185 kts 185°
2026-05-08 22:08 39.04568 -77.43464 2069 ft 180 kts 185°
2026-05-08 22:08 39.03358 -77.43483 1829 ft 168 kts 185°
2026-05-08 22:09 39.02229 -77.43500 1621 ft 154 kts 184°
2026-05-08 22:09 39.01186 -77.43515 1409 ft 147 kts 183°
2026-05-08 22:09 39.00178 -77.43529 1212 ft 144 kts 182°
2026-05-08 22:09 38.99167 -77.43539 995 ft 143 kts 182°
2026-05-08 22:10 38.98185 -77.43545 821 ft 141 kts 182°
2026-05-08 22:10 38.97204 -77.43553 641 ft 140 kts 183°
2026-05-08 22:10 38.96234 -77.43584 479 ft 138 kts 184°
2026-05-08 22:10 38.95273 -77.43597 330 ft 136 kts 183°
2026-05-08 22:11 38.94421 -77.43613 320 ft 103 kts 180°
2026-05-08 22:11 38.93849 -77.43620 320 ft 64 kts 184°
2026-05-08 22:11 38.93549 -77.43640 320 ft 31 kts 194°
2026-05-08 22:11 38.93401 -77.43735 320 ft 11 kts 212°
2026-05-08 22:12 38.93397 -77.43739 320 ft 0 kts 213°
2026-05-08 22:13 38.93371 -77.43762 320 ft 9 kts 213°
2026-05-08 22:13 38.93338 -77.43839 320 ft 13 kts 288°
2026-05-08 22:14 38.93392 -77.43874 320 ft 16 kts
2026-05-08 22:14 38.93557 -77.43873 320 ft 23 kts
2026-05-08 22:14 38.93738 -77.43867 320 ft 28 kts 360°
2026-05-08 22:14 38.93935 -77.43868 320 ft 26 kts 359°
2026-05-08 22:15 38.94099 -77.43862 320 ft 23 kts
2026-05-08 22:15 38.94257 -77.43859 320 ft 22 kts
2026-05-08 22:15 38.94371 -77.43863 320 ft 14 kts 337°
2026-05-08 22:15 38.94409 -77.43963 320 ft 13 kts 270°
2026-05-08 22:16 38.94409 -77.44040 320 ft 13 kts 270°
2026-05-08 22:16 38.94410 -77.44153 320 ft 12 kts 270°
2026-05-08 22:16 38.94411 -77.44261 320 ft 12 kts 270°
2026-05-08 22:16 38.94412 -77.44371 320 ft 15 kts 270°
2026-05-08 22:17 38.94414 -77.44557 320 ft 23 kts 270°
2026-05-08 22:17 38.94415 -77.44754 320 ft 22 kts 271°
2026-05-08 22:17 38.94417 -77.44943 320 ft 21 kts 270°
2026-05-08 22:17 38.94419 -77.45119 320 ft 17 kts 272°
2026-05-08 22:18 38.94420 -77.45188 320 ft 0 kts 270°
2026-05-08 22:18 38.94420 -77.45248 320 ft 13 kts 271°
2026-05-08 22:18 38.94433 -77.45333 320 ft 7 kts 338°
2026-05-08 22:19 38.94482 -77.45339 320 ft 7 kts
2026-05-08 22:19 38.94500 -77.45338 320 ft 0 kts
2026-05-08 22:19 38.94504 -77.45338 320 ft 0 kts